Flag for Switzerland Weather past 2 weeks in Bellinzona, Ticino, Switzerland

Now
57 °F

Refreshingly cool.


Feels Like: 54 °F
Forecast: 37 / 67 °F
Wind: 12 mph from West

Location: Locarno-Magadino

Current Time: Apr 1, 2015 at 1:34:31 PM

Latest Report: Apr 1, 2015 at 12:00 PM


Visibility: N/A

Pressure: 30.04 "Hg

Humidity: 26%

Dew point: 22 °F

Location of BellinzonaLocation

Historic Weather in Bellinzona — Graph

°F

Bellinzona temperature yesterday

Maximum temperature yesterday: 75 °F (at 5:00 PM)
Minimum temperature yesterday: 41 °F (at 7:00 AM)
Average temperature yesterday: 58 °F

Past Weeks' High & Low Weather Summary

 TemperatureHumidityPressure
High75 °F (Mar 31, 5:00 PM)99% (Mar 18, 6:00 AM)30.41 "Hg (Mar 18, 6:00 AM)
Low34 °F (Mar 18, 6:00 AM)17% (Mar 27, 4:00 PM)29.50 "Hg (Mar 25, 5:00 PM)
Average51 °F70%29.97 "Hg
* Reported Mar 17 11:00 AM — Apr 1 12:00 Noon, Bellinzona, Weather by CustomWeather, © 2015

Note: Actual official high and low records may vary slightly from our data, if they occured in-between our weather recording intervals... More about our weather records

Advertising

Bellinzona weather history for previous 24 hours

 ConditionsComfort  
Time TempWeatherWind HumidityBarometerVisibility
12:00 PM
Wed, Apr 1
57 °FRefreshingly cool.12 mph26%30.04 "HgN/A
11:00 AM57 °FRefreshingly cool.13 mph21%30.03 "HgN/A
10:00 AM55 °FRefreshingly cool.9 mph26%30.02 "HgN/A
9:00 AM53 °FCool.5 mph27%30.01 "HgN/A
8:00 AM53 °FCool.8 mph24%29.99 "HgN/A
7:00 AM52 °FCool.3 mph31%29.96 "HgN/A
6:00 AM50 °FCool.6 mph37%29.95 "HgN/A
4:00 AM52 °FCool.3 mph34%29.94 "HgN/A
3:00 AM52 °FCool.2 mph38%29.95 "HgN/A
2:00 AM50 °FCool.1 mph49%29.95 "HgN/A
1:00 AM55 °FCool.8 mph37%29.91 "HgN/A
12:00 AM56 °FRefreshingly cool.7 mph41%29.88 "HgN/A
11:00 PM
Tue, Mar 31
56 °FRefreshingly cool.3 mph47%29.85 "HgN/A
10:00 PM57 °FRefreshingly cool.12 mph51%29.82 "HgN/A
9:00 PM62 °FRefreshingly cool.5 mph36%29.76 "HgN/A
8:00 PM66 °FMild.14 mph28%29.71 "HgN/A
7:00 PM69 °FMild.16 mph24%29.66 "HgN/A
6:00 PM71 °FMild.10 mph24%29.64 "HgN/A
5:00 PM75 °FMild.15 mph20%29.61 "HgN/A
4:00 PM71 °FMild.2 mph36%29.59 "HgN/A
3:00 PM69 °FMild.5 mph37%29.62 "HgN/A
2:00 PM67 °FMild.3 mph46%29.67 "HgN/A
1:00 PM64 °FMild.1 mph42%29.72 "HgN/A
Weather by CustomWeather, © 2015

See weather overviewHow to use our weather pages